TimeEST,TemperatureF,Dew PointF,Humidity,Sea Level PressureIn,VisibilityMPH,Wind Direction,Wind SpeedMPH,Gust SpeedMPH,PrecipitationIn,Events,Conditions,WindDirDegrees,DateUTC
12:12 AM,53.6,53.6,100,29.71,2.0,Calm,Calm,-,N/A,,Mostly Cloudy,0,2013-11-03 04:12:00
12:24 AM,53.6,53.6,100,29.71,4.0,WSW,3.5,-,N/A,,Mostly Cloudy,240,2013-11-03 04:24:00
12:53 AM,55.0,53.1,93,29.73,7.0,WSW,5.8,-,N/A,,Mostly Cloudy,250,2013-11-03 04:53:00
1:53 AM,55.0,53.1,93,29.74,10.0,NNW,6.9,-,N/A,,Partly Cloudy,330,2013-11-03 05:53:00
1:53 AM,53.1,46.9,80,29.75,10.0,North,6.9,-,N/A,,Mostly Cloudy,350,2013-11-03 06:53:00
2:53 AM,53.1,46.9,80,29.77,10.0,NNW,9.2,-,N/A,,Clear,340,2013-11-03 07:53:00
3:53 AM,53.1,46.9,80,29.79,10.0,NNW,12.7,-,N/A,,Clear,340,2013-11-03 08:53:00
4:51 AM,53.6,48.2,82,29.82,10.0,North,10.4,19.6,N/A,,Mostly Cloudy,360,2013-11-03 09:51:00
4:53 AM,53.1,48.0,83,29.82,10.0,North,10.4,19.6,N/A,,Mostly Cloudy,350,2013-11-03 09:53:00
5:15 AM,53.6,48.2,82,29.84,10.0,North,13.8,-,N/A,,Overcast,10,2013-11-03 10:15:00
5:45 AM,51.8,48.2,88,29.84,10.0,North,17.3,-,N/A,,Overcast,10,2013-11-03 10:45:00
5:53 AM,52.0,46.9,83,29.84,10.0,North,20.7,26.5,N/A,,Overcast,10,2013-11-03 10:53:00
6:53 AM,51.1,46.9,86,29.89,10.0,North,17.3,26.5,N/A,,Overcast,360,2013-11-03 11:53:00
7:53 AM,51.1,46.0,83,29.92,10.0,North,17.3,26.5,N/A,,Overcast,360,2013-11-03 12:53:00
8:53 AM,50.0,46.0,86,29.95,7.0,NNE,17.3,24.2,0.00,Rain,Light Rain,20,2013-11-03 13:53:00
9:53 AM,48.0,44.1,86,29.98,10.0,NNE,24.2,31.1,0.00,,Overcast,20,2013-11-03 14:53:00
10:41 AM,46.4,44.6,93,30.01,4.0,North,23.0,31.1,0.00,Rain,Light Rain,10,2013-11-03 15:41:00
10:49 AM,46.4,42.8,87,30.02,4.0,North,21.9,33.4,0.00,Rain,Light Rain,10,2013-11-03 15:49:00
10:53 AM,46.0,43.0,89,30.02,5.0,NNE,27.6,33.4,0.00,Rain,Light Rain,20,2013-11-03 15:53:00
11:01 AM,46.4,42.8,87,30.02,7.0,NNE,26.5,33.4,0.00,Rain,Light Rain,20,2013-11-03 16:01:00
11:53 AM,45.0,41.0,86,30.03,9.0,North,21.9,28.8,0.00,Rain,Light Rain,10,2013-11-03 16:53:00
12:53 PM,45.0,37.9,76,30.05,10.0,North,24.2,32.2,0.00,,Overcast,10,2013-11-03 17:53:00
1:53 PM,45.0,37.0,74,30.08,10.0,NNE,21.9,29.9,N/A,,Overcast,20,2013-11-03 18:53:00
2:53 PM,45.0,33.1,63,30.11,10.0,NNE,19.6,27.6,N/A,,Overcast,20,2013-11-03 19:53:00
3:24 PM,44.6,33.8,66,30.12,10.0,NNE,20.7,-,N/A,,Overcast,20,2013-11-03 20:24:00
3:53 PM,44.1,33.1,65,30.13,10.0,NNE,21.9,32.2,N/A,,Mostly Cloudy,20,2013-11-03 20:53:00
4:53 PM,44.1,30.9,60,30.18,10.0,North,17.3,23.0,N/A,,Overcast,10,2013-11-03 21:53:00
5:53 PM,43.0,30.0,60,30.22,10.0,North,17.3,-,N/A,,Scattered Clouds,360,2013-11-03 22:53:00
6:53 PM,42.1,28.9,60,30.23,10.0,North,18.4,-,N/A,,Partly Cloudy,10,2013-11-03 23:53:00
7:53 PM,44.1,28.9,55,30.25,10.0,North,17.3,23.0,N/A,,Overcast,10,2013-11-04 00:53:00
8:53 PM,44.1,28.0,53,30.27,10.0,North,12.7,23.0,N/A,,Scattered Clouds,360,2013-11-04 01:53:00
9:53 PM,45.0,28.0,52,30.29,10.0,North,11.5,-,N/A,,Overcast,10,2013-11-04 02:53:00
10:53 PM,45.0,26.1,48,30.30,10.0,North,15.0,-,N/A,,Overcast,10,2013-11-04 03:53:00